Tracking 30703 objects as of 13-Jun-2025
HD Live streaming from Space Station
objects crossing your sky now

KYOKKO 1 (EXOS A)

Track KYOKKO 1 (EXOS A) now!
10-day predictions
KYOKKO 1 (EXOS A) is classified as:


NORAD ID: 10664
Int'l Code: 1978-014A
Perigee: 657.5 km
Apogee: 3,935.9 km
Inclination: 65.4 °
Period: 133.8 minutes
Semi major axis: 8667 km
RCS: 1.0778 m2 (large)
Launch date: February 4, 1978
Source: Japan (JPN)
Launch site: KAGOSHIMA SPACE CENTER UNIVERSITY OF TOKYO (KSCUT)
Your satellite tracking list
Your tracking list is empty




NASA's NSSDC Master Catalog

Two Line Element Set (TLE):
1 10664U 78014A   25163.64700020 -.00000004  00000-0  42530-4 0  9996
2 10664  65.3735 130.6123 1891140 104.6357 277.0830 10.75843454843018
Source of the keplerian elements: AFSPC